Temp
3 2 2 2 2 2 1 1 1 1 1 1 1 1 1 1 1 1 0 1 1 1 1 1 1 1 2 2 2 2 2 3 2 2 2 3 2 3 2 2 3 3 3
2 1 1 1 1 1 1 1 1 1 1 1 1 1 1 1 1 1 1 1 1 1 1 1 1 1 1 1 2 2 2 2 2 2 2 2 2 2 2 3 2 2 3
1 1 1 0 -0 -0 0 0 1 0 0 0 0 0 1 1 0 0 0 -0 1 1 1 0 0 0 0 1 1 1 1 1 2 2 2 2 1 2 2 2 2 3 2
0 0 -0 -0 -0 -1 -0 -0 -0 -0 -0 -0 -0 -0 -0 0 0 0 0 -0 -1 0 0 0 0 -0 -0 -0 0 0 0 1 1 1 1 1 1 1 2 2 2 2 3
0 -0 -0 -0 -0 -1 -0 -0 0 0 0 0 0 -1 -0 0 -0 -0 -0 0 -0 -1 -1 0 -0 -1 -1 -1 -1 -1 -0 0 1 1 1 1 1 1 1 1 1 1 2
-0 -1 -1 -1 -1 -1 -0 -0 -0 -1 -1 -1 -1 -1 -2 -2 -1 -1 -1 -1 -1 -1 -1 -2 -1 -1 -1 -1 -2 -1 -1 -1 -0 0 0 0 1 1 1 1 1 1 2
-1 -1 -0 -1 -2 -2 -2 -1 -1 -1 -1 -2 -2 -1 -1 -1 -1 -1 -1 -1 -2 -1 -1 -1 -2 -2 -1 -2 -2 -2 -2 -2 -2 -1 -0 0 -0 0 0 0 1 1 1
-1 -2 -2 -2 -2 -2 -2 -2 -2 -2 -2 -2 -2 -3 -2 -2 -3 -2 -2 -1 -2 -2 -3 -1 -2 -2 -3 -2 -2 -3 -3 -3 -2 -2 -2 -1 -1 -1 -0 0 -0 -0 1
-2 -2 -3 -2 -2 -2 -2 -2 -2 -2 -2 -2 -2 -3 -3 -3 -4 -4 -4 -4 -4 -3 -3 -4 -3 -3 -3 -3 -4 -3 -3 -3 -3 -3 -3 -2 -2 -1 -1 -1 -0 -0 -0
-2 -2 -2 -2 -2 -2 -3 -3 -3 -2 -3 -2 -3 -3 -5 -5 -4 -4 -4 -4 -4 -4 -4 -4 -5 -4 -3 -3 -4 -4 -4 -4 -4 -4 -3 -3 -3 -2 -1 -1 -1 -1 -0
-2 -3 -3 -3 -3 -3 -3 -3 -3 -3 -3 -4 -4 -4 -4 -5 -5 -5 -4 -4 -5 -5 -5 -5 -6 -5 -5 -4 -4 -4 -4 -4 -4 -4 -4 -4 -4 -3 -2 -2 -1 -1 -1
-3 -3 -3 -3 -3 -4 -4 -4 -4 -4 -4 -5 -5 -6 -6 -6 -6 -6 -7 -6 -7 -5 -6 -5 -6 -6 -7 -6 -5 -5 -5 -5 -5 -5 -5 -5 -5 -4 -4 -3 -2 -2 -2
-4 -4 -4 -3 -4 -4 -4 -5 -5 -6 -6 -7 -7 -8 -8 -8 -8 -8 -8 -8 -7 -6 -6 -6 -6 -7 -8 -7 -6 -7 -5 -6 -5 -5 -5 -5 -5 -4 -4 -4 -3 -3 -2
-3 -4 -4 -5 -5 -6 -6 -8 -9 -9 -9 -10 -10 -10 -10 -9 -9 -9 -9 -9 -9 -8 -7 -7 -7 -7 -8 -9 -9 -8 -6 -6 -6 -6 -5 -5 -5 -4 -4 -4 -4 -3 -3
-4 -5 -6 -6 -7 -8 -9 -10 -10 -11 -11 -10 -10 -10 -10 -10 -10 -10 -10 -10 -10 -10 -9 -9 -9 -9 -9 -10 -11 -10 -8 -8 -7 -6 -6 -6 -5 -5 -5 -4 -4 -4 -4
-6 -7 -8 -9 -10 -10 -11 -11 -11 -11 -11 -12 -12 -12 -12 -12 -12 -12 -11 -11 -11 -11 -10 -11 -10 -10 -10 -10 -10 -11 -9 -8 -8 -8 -7 -7 -7 -6 -5 -5 -5 -4 -4
-8 -9 -10 -10 -11 -11 -11 -11 -12 -12 -11 -12 -12 -12 -12 -13 -13 -14 -14 -14 -14 -14 -13 -11 -12 -12 -12 -12 -12 -11 -10 -10 -9 -8 -8 -7 -7 -6 -6 -6 -5 -5 -4
-10 -10 -11 -11 -12 -12 -12 -12 -12 -13 -13 -14 -15 -15 -15 -16 -14 -14 -14 -14 -15 -16 -15 -15 -15 -14 -12 -12 -12 -12 -11 -11 -11 -10 -9 -8 -7 -7 -7 -7 -6 -6 -6
-11 -12 -12 -12 -13 -13 -13 -13 -14 -15 -15 -15 -15 -15 -15 -14 -14 -14 -14 -14 -15 -16 -16 -15 -15 -15 -15 -14 -13 -13 -13 -13 -12 -12 -11 -11 -10 -9 -8 -8 -7 -7 -6
-12 -12 -13 -13 -14 -14 -14 -16 -16 -15 -15 -15 -15 -15 -15 -15 -15 -15 -15 -15 -15 -15 -15 -15 -14 -14 -16 -16 -16 -16 -15 -15 -14 -14 -15 -13 -12 -10 -9 -8 -9 -8 -8
-13 -13 -14 -14 -15 -15 -16 -15 -15 -15 -15 -15 -15 -15 -15 -15 -15 -15 -15 -15 -15 -15 -15 -15 -15 -15 -16 -15 -14 -15 -15 -15 -14 -13 -13 -13 -12 -12 -11 -11 -10 -10 -9
-14 -15 -14 -15 -16 -17 -16 -15 -15 -16 -16 -16 -16 -16 -16 -16 -16 -15 -15 -15 -15 -16 -15 -15 -15 -14 -15 -15 -14 -15 -15 -15 -14 -15 -14 -13 -13 -12 -12 -11 -11 -10 -10
-15 -15 -15 -16 -17 -16 -16 -15 -16 -16 -16 -16 -16 -17 -17 -17 -17 -16 -16 -16 -16 -15 -16 -15 -15 -15 -15 -15 -15 -15 -15 -15 -15 -15 -15 -14 -14 -13 -13 -12 -12 -12 -11
-15 -15 -15 -16 -16 -17 -16 -16 -16 -16 -16 -17 -17 -17 -17 -17 -17 -17 -16 -16 -16 -16 -16 -16 -16 -15 -16 -16 -16 -15 -15 -15 -15 -14 -15 -14 -14 -14 -14 -13 -12 -12 -12
-15 -15 -16 -16 -16 -16 -17 -17 -17 -17 -17 -17 -17 -17 -17 -17 -17 -17 -17 -17 -17 -16 -16 -16 -16 -16 -16 -17 -17 -17 -16 -16 -15 -15 -15 -15 -15 -15 -15 -14 -13 -13 -12
-16 -15 -16 -16 -16 -17 -17 -17 -17 -17 -17 -17 -17 -18 -18 -18 -18 -18 -18 -17 -17 -17 -17 -17 -17 -17 -17 -16 -17 -16 -16 -16 -15 -15 -15 -17 -17 -17 -16 -16 -15 -14 -13
Height
3149 3147 3144 3142 3140 3137 3134 3132 3129 3126 3124 3123 3121 3120 3119 3117 3116 3116 3113 3113 3114 3113 3113 3113 3114 3115 3116 3117 3119 3120 3121 3123 3125 3128 3130 3132 3135 3136 3138 3141 3143 3145 3146
3146 3144 3142 3139 3137 3134 3131 3128 3125 3123 3121 3118 3115 3113 3112 3111 3109 3108 3107 3102 3106 3106 3105 3105 3106 3107 3109 3111 3111 3112 3114 3116 3118 3120 3124 3126 3128 3131 3133 3136 3138 3141 3143
3142 3140 3138 3135 3132 3130 3126 3123 3120 3117 3115 3112 3109 3106 3104 3103 3102 3101 3101 3098 3097 3098 3098 3097 3098 3098 3100 3102 3104 3105 3106 3108 3110 3112 3116 3119 3122 3123 3126 3130 3133 3136 3138
3137 3135 3133 3130 3126 3124 3121 3118 3115 3112 3109 3107 3103 3101 3098 3096 3094 3093 3092 3092 3089 3088 3090 3090 3089 3090 3091 3092 3094 3096 3098 3100 3101 3104 3107 3109 3112 3116 3118 3121 3125 3129 3133
3132 3130 3127 3124 3121 3118 3116 3113 3111 3107 3104 3101 3098 3094 3090 3088 3086 3084 3083 3083 3083 3081 3079 3077 3082 3082 3082 3083 3084 3086 3088 3090 3093 3096 3099 3100 3103 3106 3110 3113 3115 3118 3124
3126 3124 3121 3118 3116 3112 3110 3107 3104 3102 3098 3095 3092 3088 3086 3083 3078 3076 3073 3073 3071 3070 3073 3069 3071 3073 3073 3074 3075 3077 3078 3080 3083 3086 3089 3091 3093 3096 3100 3103 3103 3106 3113
3121 3117 3114 3111 3108 3105 3101 3098 3095 3090 3087 3086 3080 3077 3074 3073 3070 3067 3067 3064 3062 3060 3059 3062 3057 3063 3061 3064 3065 3067 3069 3071 3073 3075 3078 3081 3084 3087 3090 3093 3096 3099 3102
3114 3109 3105 3101 3098 3094 3091 3087 3083 3079 3077 3075 3070 3068 3063 3062 3060 3057 3055 3054 3053 3053 3050 3048 3050 3052 3051 3050 3053 3057 3059 3060 3063 3066 3068 3071 3073 3076 3080 3083 3086 3089 3092
3105 3100 3095 3090 3086 3082 3078 3075 3072 3069 3064 3064 3061 3058 3053 3049 3051 3052 3049 3042 3044 3041 3042 3040 3037 3040 3042 3044 3039 3043 3047 3051 3052 3055 3058 3061 3063 3066 3069 3072 3075 3078 3082
3096 3091 3086 3080 3075 3072 3068 3064 3061 3057 3053 3049 3047 3045 3042 3039 3035 3033 3039 3036 3029 3030 3030 3031 3029 3025 3027 3032 3034 3030 3036 3041 3042 3044 3046 3049 3052 3055 3058 3061 3064 3067 3070
3084 3079 3074 3070 3066 3062 3058 3054 3049 3045 3041 3037 3033 3028 3026 3025 3025 3020 3017 3022 3024 3019 3018 3021 3019 3016 3011 3015 3019 3021 3022 3028 3031 3033 3035 3037 3041 3044 3047 3050 3052 3055 3058
3073 3069 3064 3058 3053 3048 3042 3037 3033 3027 3025 3020 3015 3011 3009 3008 3007 3004 3004 3006 3007 3007 3006 3009 3007 3003 3001 3002 3004 3006 3009 3014 3018 3020 3022 3026 3030 3033 3036 3039 3042 3044 3047
3063 3058 3052 3046 3040 3033 3027 3022 3018 3013 3009 3005 3001 2998 2995 2993 2992 2990 2990 2989 2991 2993 2989 2992 2994 2991 2989 2991 2994 2993 2994 2998 3004 3007 3009 3012 3017 3021 3024 3027 3030 3033 3035
3051 3045 3038 3031 3023 3018 3012 3007 3002 2997 2995 2992 2989 2986 2983 2981 2980 2978 2977 2976 2975 2977 2980 2979 2979 2979 2980 2980 2977 2980 2981 2982 2989 2992 2996 2999 3001 3006 3011 3015 3018 3022 3025
3040 3033 3025 3018 3012 3007 3002 2998 2994 2990 2986 2982 2979 2977 2974 2971 2969 2968 2967 2965 2964 2963 2964 2967 2968 2967 2966 2969 2965 2967 2969 2970 2972 2978 2982 2985 2988 2990 2995 3000 3005 3009 3013
3025 3017 3011 3006 3002 2998 2993 2989 2986 2984 2981 2976 2973 2970 2967 2965 2962 2959 2957 2954 2954 2954 2954 2957 2955 2957 2957 2957 2957 2957 2957 2959 2961 2964 2967 2972 2974 2977 2980 2984 2988 2993 2998
3014 3008 3003 2998 2994 2990 2985 2981 2978 2975 2971 2968 2965 2962 2960 2957 2955 2953 2951 2948 2946 2943 2942 2945 2944 2946 2945 2946 2947 2947 2947 2947 2948 2950 2953 2956 2959 2963 2966 2969 2972 2976 2981
3004 3000 2995 2991 2986 2983 2978 2974 2971 2967 2963 2959 2956 2954 2951 2948 2946 2944 2942 2940 2939 2939 2937 2934 2935 2935 2935 2936 2935 2935 2935 2936 2937 2937 2938 2941 2944 2948 2951 2953 2956 2961 2964
2999 2995 2990 2985 2980 2977 2972 2966 2962 2958 2955 2951 2948 2945 2942 2940 2938 2936 2934 2931 2929 2928 2926 2924 2922 2923 2923 2923 2923 2923 2923 2924 2924 2925 2925 2926 2928 2931 2935 2938 2940 2944 2948
2992 2988 2984 2978 2973 2967 2962 2957 2954 2949 2946 2943 2939 2936 2934 2931 2928 2926 2924 2921 2919 2917 2915 2913 2912 2912 2912 2913 2912 2912 2912 2913 2913 2914 2914 2913 2913 2914 2918 2923 2927 2929 2932
2985 2980 2975 2970 2964 2958 2953 2948 2945 2941 2938 2934 2931 2928 2924 2920 2918 2916 2912 2910 2909 2906 2905 2903 2902 2902 2902 2901 2902 2902 2900 2899 2899 2900 2900 2901 2903 2903 2905 2906 2909 2913 2917
2976 2971 2966 2961 2956 2951 2943 2941 2937 2932 2928 2924 2920 2917 2914 2910 2907 2904 2901 2900 2899 2896 2894 2893 2892 2890 2890 2890 2890 2889 2888 2887 2887 2889 2889 2890 2890 2890 2893 2894 2896 2897 2902
2968 2963 2958 2953 2948 2943 2934 2931 2927 2922 2917 2914 2910 2906 2902 2900 2897 2894 2891 2889 2887 2886 2884 2883 2881 2882 2880 2881 2879 2878 2878 2877 2876 2878 2878 2877 2879 2879 2881 2882 2884 2886 2887
2961 2956 2951 2945 2939 2934 2926 2923 2918 2913 2908 2904 2900 2896 2893 2890 2888 2884 2881 2879 2877 2876 2875 2874 2872 2872 2870 2870 2869 2868 2867 2866 2866 2867 2868 2866 2870 2868 2869 2869 2871 2874 2876
2953 2948 2943 2937 2932 2927 2920 2915 2909 2903 2899 2894 2890 2886 2882 2880 2877 2874 2871 2869 2868 2868 2867 2865 2863 2862 2860 2859 2858 2855 2854 2855 2855 2858 2859 2857 2859 2858 2858 2858 2859 2861 2865
2946 2941 2936 2931 2925 2919 2913 2907 2901 2895 2889 2884 2880 2877 2873 2870 2867 2865 2863 2861 2860 2860 2858 2857 2856 2855 2853 2852 2850 2847 2846 2846 2847 2848 2852 2852 2851 2851 2849 2850 2851 2852 2854
Wind_Speed
20 21 22 22 23 23 24 27 28 30 31 30 30 30 31 32 32 32 34 34 32 32 32 31 30 28 27 28 29 28 28 29 31 31 34 29 27 26 27 25 26 26 23
22 23 23 25 25 24 24 25 27 28 29 31 33 33 30 30 31 32 32 37 31 32 32 32 32 33 32 32 32 32 30 29 31 34 35 36 32 31 29 31 27 27 25
26 26 26 25 25 25 27 28 27 28 30 29 30 31 31 31 31 33 32 34 35 33 34 34 34 33 33 33 33 33 34 33 32 34 39 39 38 38 37 35 31 32 29
26 26 26 26 29 30 31 33 32 32 32 33 34 34 35 35 35 35 34 33 36 37 34 35 36 35 34 33 33 34 35 36 36 34 33 39 41 40 38 36 41 38 36
29 28 29 28 32 33 32 31 31 35 39 38 37 37 40 40 40 40 40 38 37 37 39 40 35 37 37 35 34 34 34 37 38 37 35 36 38 44 43 43 45 48 40
32 33 33 34 36 37 35 35 36 37 40 41 41 44 42 44 47 46 46 45 44 43 39 41 41 38 38 38 37 35 35 35 37 39 39 39 38 39 43 49 49 42 39
37 39 41 41 41 44 46 43 42 44 43 42 44 45 46 46 49 49 48 49 48 48 48 43 46 41 44 41 40 39 37 35 35 37 39 42 41 41 40 43 47 51 56
44 45 45 45 48 50 49 44 44 45 42 41 43 44 48 46 45 47 48 50 46 47 47 50 46 43 42 45 44 40 39 39 37 36 38 40 43 43 44 43 45 47 53
48 51 53 49 48 45 43 42 41 42 46 44 45 45 46 49 41 34 41 45 47 49 47 47 50 47 46 42 46 45 40 39 38 37 36 37 41 43 44 45 46 46 47
48 47 45 46 44 41 42 44 47 50 52 53 53 52 45 46 49 50 45 41 41 45 45 49 46 53 52 47 45 46 46 40 39 39 38 37 37 39 43 44 45 47 48
48 45 43 41 42 43 48 52 55 57 57 57 57 58 58 56 54 55 57 49 52 45 45 42 45 50 54 53 50 49 48 45 45 42 41 39 38 37 38 42 45 46 47
40 40 43 46 49 52 55 57 58 58 58 58 57 56 54 53 52 54 53 55 56 47 59 55 44 45 50 53 54 53 52 49 44 45 44 44 41 38 37 37 39 43 46
43 46 49 51 55 58 60 61 60 57 53 52 52 50 48 46 47 48 49 51 52 53 54 58 54 53 50 50 56 51 59 57 51 47 48 48 47 43 41 39 39 39 42
49 52 56 59 61 61 55 48 45 45 39 36 37 36 37 36 36 39 42 45 48 50 51 41 46 53 48 41 42 51 59 56 54 52 50 52 50 50 46 44 42 40 38
54 57 58 56 49 42 40 37 34 35 37 37 34 33 33 32 31 32 32 32 34 36 41 43 46 42 39 28 29 37 43 43 46 46 46 47 49 51 53 51 46 44 43
55 53 48 40 36 34 34 32 31 33 30 28 26 25 29 30 32 35 35 34 34 34 35 33 33 34 34 36 36 37 39 40 41 41 42 45 48 50 52 52 54 51 48
51 43 37 33 32 33 33 32 33 35 37 38 34 33 33 30 30 31 29 28 27 30 33 33 32 32 34 35 37 40 41 44 46 47 47 48 48 50 52 54 54 55 54
40 37 32 27 25 24 31 34 36 38 36 34 31 29 29 28 30 30 30 30 30 27 30 34 32 33 34 35 38 40 42 40 41 43 47 50 52 54 53 55 57 57 58
31 25 26 29 32 34 37 39 37 31 33 34 33 32 32 32 32 33 33 34 34 31 32 36 38 35 36 35 37 38 39 40 42 43 44 45 47 50 51 51 56 57 58
29 27 33 37 37 39 38 30 29 32 33 33 33 34 34 34 34 35 35 36 35 36 37 38 39 38 33 29 30 32 33 34 37 35 34 39 43 47 50 50 49 52 54
33 34 35 38 35 33 29 34 31 33 33 34 35 36 36 38 37 36 38 38 37 38 37 37 38 37 34 38 36 35 38 39 40 40 41 41 41 43 44 46 47 48 51
33 34 34 33 31 28 34 35 34 37 37 36 36 36 36 36 35 36 37 36 34 35 36 37 37 38 39 38 37 36 36 37 39 34 36 38 38 41 41 43 44 48 49
32 33 32 31 31 32 37 36 35 36 36 36 36 35 35 32 33 34 35 35 34 32 33 32 33 32 33 32 33 35 36 37 38 36 37 38 36 37 37 38 39 41 45
33 33 32 33 34 32 36 35 34 35 35 35 35 34 34 32 31 32 32 33 31 30 28 27 29 29 31 33 35 37 37 37 37 36 36 39 34 37 36 39 40 38 40
33 32 32 33 33 32 35 35 36 36 36 35 34 33 32 31 29 29 30 29 26 24 24 25 28 28 27 27 28 34 39 38 36 33 30 32 30 32 33 35 38 39 37
30 32 30 31 33 33 34 35 35 34 35 34 32 30 29 27 26 26 24 25 24 22 23 24 21 19 20 19 18 22 22 28 30 30 26 27 26 24 26 26 28 32 35
Wind_Direction
308 311 309 308 306 305 306 306 306 304 300 295 290 288 286 285 284 284 283 284 281 279 278 275 270 266 260 258 257 255 256 254 248 242 242 243 243 238 238 240 235 238 239
304 307 312 312 308 308 309 309 307 304 301 300 299 296 292 289 287 284 283 285 281 280 278 276 273 270 264 260 259 260 256 251 249 246 240 237 238 244 241 243 238 238 238
304 306 306 309 305 306 306 305 306 304 300 297 296 294 293 291 287 285 282 281 281 278 276 275 273 271 268 266 262 258 257 256 249 243 243 241 240 233 236 244 242 247 241
303 304 306 303 306 307 304 306 307 306 303 300 299 296 295 295 292 289 287 284 283 284 276 274 274 271 269 266 263 261 258 255 254 251 244 243 243 240 239 237 238 241 242
299 300 304 305 306 305 302 303 304 305 302 297 293 292 292 290 289 291 289 286 284 282 283 280 272 274 273 268 264 261 256 255 253 253 251 246 244 241 241 242 239 234 235
300 298 299 298 301 304 300 293 291 290 290 287 285 286 284 285 288 289 288 286 285 282 280 280 281 276 272 271 268 262 258 255 252 251 250 250 248 245 242 242 249 253 235
294 295 295 295 296 298 298 292 291 291 290 287 285 283 281 277 278 279 280 281 282 284 282 277 278 276 274 269 269 268 263 257 254 250 248 249 249 247 248 246 245 244 250
291 285 287 290 291 291 292 289 290 291 288 288 286 285 284 280 278 282 280 278 280 277 279 279 277 274 270 275 270 266 267 263 257 253 251 248 247 248 247 246 245 245 245
298 298 294 291 291 290 290 293 293 293 292 291 288 283 281 278 279 271 269 271 269 270 272 275 277 277 272 271 270 272 265 265 264 259 253 250 249 247 248 248 246 245 245
298 299 296 295 294 293 291 292 292 290 288 285 284 281 272 271 272 270 258 260 270 256 264 263 265 274 271 270 269 270 266 263 264 262 259 253 249 248 246 246 248 247 245
301 299 298 296 294 290 286 286 285 284 283 284 284 283 284 280 271 265 264 261 257 268 254 248 256 259 265 265 266 267 267 262 260 261 257 255 252 249 247 245 246 248 248
299 299 295 293 291 289 287 286 285 284 282 283 282 281 279 276 272 268 264 261 259 255 262 263 245 230 250 259 263 266 267 265 261 259 259 256 255 252 249 248 248 248 248
296 295 294 292 291 290 290 291 293 291 290 285 283 281 278 274 271 268 265 265 260 254 257 260 251 250 247 255 265 260 270 266 264 261 264 261 258 256 253 251 250 251 250
301 297 294 295 295 299 302 299 296 295 292 291 288 285 281 276 271 268 266 261 257 252 251 248 242 255 250 241 255 261 265 267 266 265 264 259 263 259 256 254 254 251 254
294 297 300 303 306 300 295 293 293 297 298 295 295 290 283 277 272 268 268 269 267 263 257 254 255 256 254 251 256 260 262 264 263 259 259 257 257 260 258 256 255 256 256
305 307 309 308 303 299 296 294 295 298 293 281 285 283 288 292 294 294 292 288 280 273 266 261 254 252 253 249 251 258 263 261 262 261 259 255 253 254 256 257 257 258 255
311 312 308 304 302 302 300 299 298 296 296 297 293 286 286 287 285 284 287 290 293 296 289 274 273 269 269 269 268 266 266 266 265 263 258 255 255 254 255 256 257 257 256
310 308 301 304 308 305 302 302 298 297 296 297 298 291 293 294 291 289 287 283 279 272 265 273 275 269 267 263 262 262 262 263 265 265 264 259 255 254 255 256 256 257 258
313 302 299 302 298 296 296 299 296 293 291 294 294 295 294 291 288 287 285 282 280 276 271 274 279 277 275 272 270 267 267 267 266 267 267 266 264 259 255 254 254 254 255
302 294 295 302 301 302 303 299 297 298 294 294 294 294 294 291 288 287 287 284 284 283 282 281 280 280 278 278 273 272 272 269 268 264 265 266 266 262 259 257 256 255 254
299 301 304 305 304 305 301 300 302 297 296 295 294 294 292 290 289 285 283 283 283 281 279 277 276 276 268 270 272 270 266 267 267 268 268 267 267 268 267 264 261 255 253
305 306 308 306 307 307 296 304 302 299 298 297 294 292 289 287 287 284 283 281 281 278 276 274 274 272 275 276 276 273 271 271 271 270 268 265 264 263 260 259 257 259 255
313 313 311 309 307 307 301 308 304 301 299 298 296 295 293 289 287 287 288 287 283 278 276 275 275 275 274 273 272 271 271 272 272 271 271 271 270 269 266 262 257 255 256
313 312 311 311 311 311 307 309 307 303 301 299 297 295 293 292 289 286 283 281 281 279 279 278 276 274 275 276 273 271 268 268 268 270 270 270 272 272 271 265 261 257 255
313 314 317 316 314 314 312 312 309 306 304 302 299 296 295 292 290 286 283 282 279 279 279 279 281 283 281 281 277 269 261 260 263 267 267 272 274 273 272 265 260 259 259
315 320 319 317 317 317 315 312 310 307 306 304 301 299 297 295 289 285 284 282 281 283 281 283 278 281 283 285 284 277 273 263 264 266 264 266 271 279 276 271 268 263 260